TimeEDT,TemperatureF,Dew PointF,Humidity,Sea Level PressureIn,VisibilityMPH,Wind Direction,Wind SpeedMPH,Gust SpeedMPH,PrecipitationIn,Events,Conditions,WindDirDegrees,DateUTC
12:15 AM,74.1,63.5,69,30.10,10.0,South,3.5,-,N/A,,Clear,180,2013-08-26 04:15:00
12:35 AM,73.6,63.7,71,30.09,10.0,South,3.5,-,N/A,,Clear,180,2013-08-26 04:35:00
12:54 AM,73.6,63.9,72,30.08,10.0,Calm,Calm,-,N/A,,Clear,0,2013-08-26 04:54:00
1:15 AM,73.8,63.3,70,30.07,10.0,SW,5.8,-,N/A,,Clear,220,2013-08-26 05:15:00
1:35 AM,76.1,64.4,67,30.07,10.0,SW,5.8,-,N/A,,Clear,220,2013-08-26 05:35:00
1:54 AM,76.1,64.2,67,30.06,10.0,SW,6.9,-,N/A,,Clear,230,2013-08-26 05:54:00
2:15 AM,76.1,63.9,66,30.05,10.0,WSW,4.6,-,N/A,,Clear,240,2013-08-26 06:15:00
2:34 AM,76.1,63.5,65,30.05,10.0,West,6.9,-,N/A,,Clear,260,2013-08-26 06:34:00
2:55 AM,76.1,63.9,66,30.06,10.0,WSW,8.1,-,N/A,,Clear,250,2013-08-26 06:55:00
3:15 AM,76.1,64.6,67,30.05,10.0,West,10.4,17.3,N/A,,Clear,260,2013-08-26 07:15:00
3:34 AM,76.1,64.8,68,30.05,10.0,WSW,6.9,-,N/A,,Clear,250,2013-08-26 07:34:00
3:55 AM,76.1,65.3,69,30.04,10.0,WSW,6.9,-,N/A,,Clear,250,2013-08-26 07:55:00
4:15 AM,75.6,65.5,71,30.04,10.0,West,9.2,-,N/A,,Clear,260,2013-08-26 08:15:00
4:35 AM,75.0,65.1,71,30.04,10.0,West,6.9,-,N/A,,Clear,270,2013-08-26 08:35:00
4:55 AM,75.2,65.5,72,30.04,10.0,West,8.1,-,N/A,,Clear,260,2013-08-26 08:55:00
5:15 AM,76.1,66.4,72,30.04,10.0,West,9.2,-,N/A,,Clear,260,2013-08-26 09:15:00
5:34 AM,75.7,66.0,72,30.03,10.0,WSW,10.4,-,N/A,,Clear,250,2013-08-26 09:34:00
5:55 AM,75.9,66.2,72,30.03,10.0,WSW,8.1,-,N/A,,Clear,250,2013-08-26 09:55:00
6:15 AM,76.1,66.2,71,30.03,10.0,WSW,8.1,-,N/A,,Clear,250,2013-08-26 10:15:00
6:34 AM,76.1,65.8,70,30.05,10.0,West,8.1,-,N/A,,Scattered Clouds,270,2013-08-26 10:34:00
6:55 AM,76.1,65.5,70,30.06,10.0,West,8.1,-,N/A,,Clear,260,2013-08-26 10:55:00
7:15 AM,76.1,64.9,68,30.07,10.0,West,9.2,-,N/A,,Scattered Clouds,270,2013-08-26 11:15:00
7:34 AM,76.1,65.3,69,30.06,10.0,West,6.9,-,N/A,,Scattered Clouds,270,2013-08-26 11:34:00
7:55 AM,76.1,65.5,70,30.06,10.0,West,4.6,-,N/A,,Scattered Clouds,260,2013-08-26 11:55:00
8:15 AM,76.1,66.2,71,30.05,10.0,WSW,5.8,-,N/A,,Scattered Clouds,240,2013-08-26 12:15:00
8:34 AM,76.1,66.2,71,30.08,10.0,West,6.9,-,N/A,,Scattered Clouds,280,2013-08-26 12:34:00
8:55 AM,75.4,65.5,71,30.10,10.0,West,9.2,18.4,N/A,,Mostly Cloudy,280,2013-08-26 12:55:00
9:15 AM,73.6,68.9,85,30.08,5.0,Calm,Calm,-,N/A,Rain,Heavy Rain,0,2013-08-26 13:15:00
9:35 AM,72.0,70.5,95,30.07,7.0,SW,3.5,-,N/A,Rain,Light Rain,220,2013-08-26 13:35:00
9:55 AM,71.1,70.7,99,30.05,7.0,SSW,4.6,-,N/A,,Scattered Clouds,200,2013-08-26 13:55:00
10:15 AM,73.6,72.9,98,30.04,7.0,SSW,6.9,-,N/A,,Scattered Clouds,210,2013-08-26 14:15:00
10:35 AM,73.6,72.7,97,30.04,7.0,SW,5.8,-,N/A,,Scattered Clouds,220,2013-08-26 14:35:00
10:55 AM,73.6,72.9,98,30.06,7.0,WSW,6.9,-,N/A,,Scattered Clouds,250,2013-08-26 14:55:00
11:15 AM,73.6,72.9,98,30.03,7.0,SW,5.8,-,N/A,,Mostly Cloudy,230,2013-08-26 15:15:00
11:35 AM,73.6,71.4,93,30.04,10.0,SW,8.1,-,N/A,,Scattered Clouds,220,2013-08-26 15:35:00
11:55 AM,76.1,70.7,83,30.05,10.0,West,6.9,-,N/A,,Clear,260,2013-08-26 15:55:00
12:14 PM,76.1,69.6,80,30.04,10.0,West,6.9,-,N/A,,Clear,280,2013-08-26 16:14:00
12:35 PM,78.8,70.7,76,30.04,10.0,West,9.2,-,N/A,,Clear,270,2013-08-26 16:35:00
12:55 PM,78.8,69.8,74,30.04,10.0,SW,10.4,-,N/A,,Clear,230,2013-08-26 16:55:00
1:14 PM,79.7,69.8,72,30.04,10.0,WSW,8.1,18.4,N/A,,Clear,250,2013-08-26 17:14:00
1:35 PM,81.1,68.2,65,30.03,10.0,WSW,9.2,16.1,N/A,,Clear,250,2013-08-26 17:35:00
1:55 PM,86.0,66.7,52,30.03,10.0,WNW,13.8,18.4,N/A,,Clear,300,2013-08-26 17:55:00
2:14 PM,85.5,64.2,49,30.03,10.0,WNW,16.1,20.7,N/A,,Clear,290,2013-08-26 18:14:00
2:35 PM,87.1,63.3,45,30.02,10.0,West,15.0,21.9,N/A,,Clear,280,2013-08-26 18:35:00
2:55 PM,88.7,62.4,41,30.02,10.0,WNW,13.8,19.6,N/A,,Clear,300,2013-08-26 18:55:00
3:14 PM,88.7,60.4,39,30.00,10.0,NW,11.5,-,N/A,,Clear,320,2013-08-26 19:14:00
3:35 PM,88.7,60.1,38,29.98,10.0,NW,10.4,17.3,N/A,,Clear,320,2013-08-26 19:35:00
3:55 PM,88.7,59.5,37,29.98,10.0,NW,11.5,17.3,N/A,,Clear,320,2013-08-26 19:55:00
4:14 PM,88.9,59.4,37,29.98,10.0,West,10.4,18.4,N/A,,Clear,280,2013-08-26 20:14:00
4:35 PM,89.1,59.2,36,29.98,10.0,West,8.1,16.1,N/A,,Clear,280,2013-08-26 20:35:00
4:55 PM,88.9,59.2,37,29.98,10.0,WNW,16.1,24.2,N/A,,Clear,290,2013-08-26 20:55:00
5:15 PM,88.7,58.8,36,29.98,10.0,WNW,15.0,20.7,N/A,,Clear,300,2013-08-26 21:15:00
5:35 PM,88.7,59.2,37,29.98,10.0,WNW,10.4,21.9,N/A,,Clear,300,2013-08-26 21:35:00
5:54 PM,88.7,60.3,38,29.98,10.0,WNW,9.2,17.3,N/A,,Clear,290,2013-08-26 21:54:00
6:15 PM,88.7,62.6,42,29.98,10.0,West,8.1,-,N/A,,Scattered Clouds,270,2013-08-26 22:15:00
6:35 PM,88.7,63.3,43,29.98,10.0,West,12.7,-,N/A,,Scattered Clouds,260,2013-08-26 22:35:00
6:54 PM,88.7,64.0,44,29.98,10.0,West,8.1,17.3,N/A,,Scattered Clouds,270,2013-08-26 22:54:00
7:15 PM,86.2,62.2,45,29.98,10.0,West,9.2,-,N/A,,Clear,260,2013-08-26 23:15:00
7:35 PM,84.4,61.9,47,29.98,10.0,WNW,6.9,-,N/A,,Clear,290,2013-08-26 23:35:00
7:54 PM,81.7,62.1,51,29.99,10.0,West,6.9,-,N/A,,Clear,280,2013-08-26 23:54:00
8:15 PM,80.1,62.2,54,29.99,10.0,WNW,5.8,-,N/A,,Clear,290,2013-08-27 00:15:00
8:35 PM,78.8,63.3,59,29.99,10.0,WNW,4.6,-,N/A,,Clear,300,2013-08-27 00:35:00
8:54 PM,76.3,62.6,62,29.99,10.0,WNW,5.8,-,N/A,,Clear,300,2013-08-27 00:54:00
9:15 PM,76.1,63.7,65,30.00,10.0,WNW,4.6,-,N/A,,Clear,290,2013-08-27 01:15:00
9:35 PM,74.5,63.1,68,30.00,10.0,Calm,Calm,-,N/A,,Clear,0,2013-08-27 01:35:00
9:54 PM,73.6,64.0,72,30.01,10.0,Calm,Calm,-,N/A,,Clear,0,2013-08-27 01:54:00
10:15 PM,69.3,64.4,84,30.01,10.0,Calm,Calm,-,N/A,,Clear,0,2013-08-27 02:15:00
10:35 PM,69.3,64.8,86,30.00,10.0,WSW,3.5,-,N/A,,Clear,250,2013-08-27 02:35:00
10:54 PM,68.5,65.7,90,30.01,10.0,Calm,Calm,-,N/A,,Clear,0,2013-08-27 02:54:00
11:15 PM,68.5,65.1,89,30.00,10.0,Calm,Calm,-,N/A,,Clear,0,2013-08-27 03:15:00
11:35 PM,66.9,65.5,95,30.00,10.0,Calm,Calm,-,N/A,,Clear,0,2013-08-27 03:35:00
11:54 PM,68.5,66.7,94,29.99,10.0,Calm,Calm,-,N/A,,Clear,0,2013-08-27 03:54:00